Weather in Sanming

China     26°15′05″N   117°36′56″E
temp.,
°C
wind,
m/s
gust,
m/s
humid.,
%
clouds,
%
prec.,
mm/h
press.,
hPa
HPBL,
m
20 april, tue
tue2023:00+17e1171100 0.0 101516
02:00+17ese1168100 0.0 101420
05:00+15ene0173100 0.0 101516
08:00+17e1159100 0.0 1016218
11:00+24ne123160 0.0 1015934
14:00+27n122827 0.0 10121532
17:00+24nw114576 0.0 1011247
20:00+20nne115895 0.0 101416
21 april, wed
wed2123:00+18e11750 0.0 101522
02:00+16ene11820 0.0 101425
05:00+15ene11843 0.0 101420
08:00+19ene12630 0.0 1015401
11:00+26ne11440 0.0 10141129
14:00+28n21400 0.0 10111512
17:00+27nne23480 0.0 1010701
20:00+20ene22690 0.0 101118
22 april, thu
thu2223:00+19e11730 0.0 101215
02:00+17ene21800 0.0 101123
05:00+16ene11841 0.0 101123
08:00+21ene11631 0.0 1012340
11:00+29ne01440 0.0 10101062
14:00+30nw12418 0.0 10071863
17:00+26nne235899 0.1 1006309
20:00+23wnw117468 0.1 100815
23 april, fri
fri2323:00+20ne01860 0.0 100911
02:00+19ne11890 0.0 100913
05:00+18ne11920 0.0 100913
08:00+23nne12720 0.0 1010450
11:00+29n12503 0.0 10091500
14:00+30ne224112 0.0 10072186
17:00+28nnw235399 0.0 1006561
20:00+24nne1173100 0.0 100926
24 april, sat
sat2423:00+23ne117574 0.0 101027
02:00+21ne118239 0.0 101019
05:00+19ne11928 0.0 101016
08:00+23ene1274100 0.0 1012501
11:00+28ene2254100 0.2 10111464
14:00+27se1161100 2.4 1009973
17:00+24e1378100 2.9 1009290
20:00+20ese2290100 3.3 101140